Regional Weather Roundup
Issued by NWS Sioux Falls, SD

Home | Current Version | Previous Version | Text Only | Print | Product List | Glossary On
Versions: 1 2 3 4 5 6 7 8 9 10 11 12 13 14 15 16 17 18 19 20 21 22 23 24 25 26 27 28 29 30 31 32 33 34 35 36 37 38 39 40 41 42 43 44 45 46 47 48 49 50
000
ASUS43 KFSD 231010
RWRFSD

WEATHER ROUNDUP FOR SE SOUTH DAKOTA/SW MINNESOTA/NW IOWA
NATIONAL WEATHER SERVICE SIOUX FALLS SD
500 AM CDT MON OCT 23 2017

NOTE: "FAIR" INDICATES FEW OR NO CLOUDS BELOW 12,000 FEET WITH NO
SIGNIFICANT WEATHER AND OR OBSTRUCTIONS TO VISIBILITY.


SDZ038>040-050-052>070-231100-
SOUTHEAST SOUTH DAKOTA

CITY           SKY/WX    TMP DP  RH WIND       PRES   REMARKS
BROOKINGS      CLOUDY    52  41  66 NW15      29.85R
CHAMBERLAIN    MOCLDY    55  43  65 W14       29.98R
HURON          CLOUDY    56  40  55 NW28G37   29.88R
MADISON        FAIR      54  39  58 NW22G30   29.87R
MITCHELL       CLOUDY    56  42  59 NW17      29.92R
SIOUX FALLS    MOCLDY    53  39  59 NW12      29.86R
WINNER         FAIR      56  39  53 NW21G31   30.02R
YANKTON        PTCLDY    51  37  58 NW15      29.91R
$$

MNZ071-072-080-081-089-090-097-098-231100-
SOUTHWEST MINNESOTA

CITY           SKY/WX    TMP DP  RH WIND       PRES   REMARKS
FAIRMONT       CLEAR     44  36  73 SW12      29.82F
JACKSON        CLEAR     45  34  65 SW9       29.82F
LUVERNE        MOCLDY    41  34  75 CALM      29.85R
MARSHALL       CLEAR     53  37  54 W13       29.79S
MONTEVIDEO     PTCLDY    54  39  58 NW8       29.77R
PIPESTONE      PTCLDY    46  34  61 NW7       29.83R
REDWOOD FALLS  CLOUDY    48  35  60 SW8       29.77F
TRACY          CLEAR     52  37  56 W9        29.79S
WORTHINGTON    PTCLDY    47  33  58 SW8       29.82F
$$

IAZ001>003-012>014-020>022-031-032-NEZ013-014-SDZ071-231100-
NORTHWEST IOWA

CITY           SKY/WX    TMP DP  RH WIND       PRES   REMARKS
CHEROKEE       CLOUDY    47  35  63 CALM      29.84R
DENISON        PTCLDY    50  34  53 VRB5      29.86F
ESTHERVILLE    CLEAR     40  36  86 S6        29.82S
LE MARS        PTCLDY    46  36  66 S3        29.85R
ORANGE CITY    CLOUDY    46  36  66 SW5       29.84S
SHELDON        CLOUDY    43  34  70 W5        29.82F
SIOUX CITY     MOCLDY    43  38  82 CALM      29.86R
SPENCER        PTCLDY    46  34  62 CALM      29.82S
STORM LAKE     CLOUDY    50  32  50 SW13      29.83S
$$

ABBREVIATIONS USED IN REMARKS
   TC - TEMPERATURE IN CELSIUS
  WCI - WIND CHILL INDEX
   HX - HEAT INDEX
  VSB - VISIBILITY





USA.gov is the U.S. government's official web portal to all federal, state and local government web resources and services.